Location: Geçitköy
(36.7327°N, 29.8010°E)
Time: 19:55:22
(UTC+00:00)

USA 238 DEB - Pass Details

Date: 12 January 2026
Orbit: 883 x 1328 km, 63.4° (Epoch: 10 January)

Event Time Altitude Azimuth Distance (km) Brightness Sun altitude
Rises 16:52:47 0° 330° (NNW) 4,020 7.0 -21.1°
Reaches altitude 10° 16:55:27 10° 333° (NNW) 3,115 6.3 -21.7°
Maximum altitude 17:03:01 68° 56° (NE) 1,352 3.9 -23.2°
Enters shadow 17:08:51 21° 135° (SE) 2,590 5.4 -24.3°
